Presure
207 172 208 187 216 219 198 218 229 246 226 177 336 338 337 356 258 237 233 216 203 190 206 222 223 207 195 195 196 195 190 184 181 174 176 196 196 195 183 181 192 180 185 192
191 204 192 195 171 208 202 219 218 216 232 232 252 196 266 307 333 342 353 240 198 191 191 191 185 183 184 197 193 188 174 180 208 172 186 196 193 191 178 177 186 183 218 191
195 194 203 190 189 187 139 209 207 212 221 225 214 231 231 245 247 247 265 284 297 330 335 244 232 171 170 185 182 176 182 185 185 190 188 182 181 182 183 202 199 201 202 196
190 185 176 196 202 198 181 196 190 180 212 211 218 214 214 216 218 226 230 230 231 233 239 242 245 245 247 247 247 239 239 241 231 224 207 197 197 205 206 204 204 209 213 216
205 181 179 197 186 150 179 200 199 207 190 166 190 199 217 215 207 208 211 212 212 214 217 221 220 220 219 217 216 216 213 215 217 220 219 213 207 203 195 202 208 206 205 194
194 178 180 185 191 179 173 201 179 192 198 191 199 204 204 186 194 198 210 212 216 212 214 210 203 213 219 201 201 217 202 192 197 204 206 199 194 196 211 204 185 186 192 209
193 194 173 185 187 188 193 185 185 198 178 196 178 190 194 202 203 190 181 179 183 181 195 193 164 159 195 197 193 194 210 185 182 191 200 202 194 207 191 180 191 201 201 186
194 190 183 177 188 177 185 191 186 183 196 189 200 200 195 201 191 179 198 204 183 206 208 206 212 203 177 174 192 180 185 179 207 190 193 192 182 183 182 177 194 193 216 222
193 191 185 189 186 191 195 190 179 193 197 199 190 188 202 191 204 185 200 203 203 200 216 182 204 202 173 185 171 215 202 192 194 194 209 213 209 205 203 214 186 183 228 234
196 193 198 199 195 191 190 194 199 198 190 189 197 192 200 192 199 191 208 202 199 196 191 207 188 181 199 214 200 193 186 196 211 212 214 203 204 185 218 189 232 228 259 274
190 195 180 197 197 195 190 191 192 194 196 194 194 193 161 191 190 201 185 205 208 211 190 182 183 187 189 210 195 216 210 207 218 206 200 211 221 225 237 236 266 269 278 272
184 190 199 195 194 195 192 195 200 198 199 194 204 188 201 195 202 199 198 208 201 186 202 186 199 209 206 193 203 218 214 217 216 220 222 233 243 256 268 260 265 269 272 299
197 199 201 176 190 194 203 209 196 186 190 188 188 190 188 215 183 218 206 210 192 201 214 208 207 210 205 189 207 213 226 216 205 234 249 240 265 264 251 268 266 307 431 417
198 200 206 202 197 180 196 199 202 209 192 187 201 180 204 190 202 204 208 192 189 208 207 206 211 202 193 225 213 225 213 232 237 257 243 250 249 279 285 305 420 427 411 403
192 200 206 204 208 208 193 204 197 204 210 195 203 194 192 202 209 209 212 196 213 210 208 223 208 202 212 221 229 219 240 254 257 261 241 274 283 310 393 433 424 424 437 406
183 185 198 210 201 208 193 216 202 208 197 198 202 212 198 207 210 202 191 214 209 200 216 208 204 217 223 232 254 239 276 257 260 288 290 311 413 433 426 421 417 405 394 383
205 201 190 218 210 213 188 210 204 198 194 202 205 198 214 187 211 215 212 205 219 215 227 211 222 227 241 255 277 280 297 294 287 319 444 440 435 431 423 416 409 403 398 403
215 202 235 196 207 210 209 208 199 205 199 206 204 196 205 224 215 208 209 225 226 219 222 251 258 251 292 221 250 303 289 296 470 471 466 457 453 464 475 466 457 451 426 375
233 222 239 200 181 220 223 211 198 200 211 216 224 220 211 206 215 217 224 240 250 258 249 251 246 269 257 288 295 305 533 510 461 445 440 497 491 427 419 413 406 395 373 371
232 234 229 211 216 239 228 227 226 204 213 222 229 229 221 227 243 258 259 260 259 221 244 283 288 317 306 296 470 468 460 455 445 534 549 550 530 411 401 394 388 382 380 376
231 233 236 238 239 226 224 240 247 244 242 250 253 250 242 239 252 257 245 250 267 267 287 303 316 302 367 480 471 462 470 501 484 470 459 449 441 434 423 411 405 401 393 396
232 233 240 240 239 240 243 241 242 246 237 232 249 244 253 260 258 256 272 281 288 288 315 314 339 509 503 491 478 463 483 484 496 490 485 482 477 469 457 450 443 436 427 422
240 239 239 240 236 244 249 247 248 248 246 249 251 231 259 245 258 273 292 278 316 310 301 430 454 444 437 451 449 441 437 443 448 444 442 443 444 442 449 448 445 443 438 431
244 241 241 242 244 239 243 239 244 251 251 251 255 262 256 260 290 281 306 313 305 304 455 428 403 386 374 365 358 353 351 349 347 345 344 342 344 351 357 357 358 361 370 375
247 247 247 247 249 253 256 253 252 251 247 258 262 262 288 280 286 313 305 296 388 453 434 385 368 353 341 335 330 327 323 321 319 320 319 317 319 326 324 342 341 339 337 331
250 253 256 258 259 260 261 256 259 259 255 270 285 278 270 313 305 295 304 455 445 412 381 355 340 328 320 318 319 320 315 317 330 324 345 345 344 342 340 335 333 330 325 320
265 265 266 264 265 267 263 262 262 269 280 275 264 312 304 299 296 435 453 429 410 383 352 333 317 312 311 310 312 343 338 345 343 336 332 328 323 321 319 319 319 319 318 315
Wind_Speed
31 16 31 4 31 29 11 23 31 32 15 13 13 17 17 16 74 69 70 72 73 76 77 82 85 85 87 89 90 92 94 95 94 87 88 97 98 103 103 104 109 105 111 114
23 24 16 15 20 22 12 26 23 18 25 19 22 11 20 14 15 20 24 72 77 78 79 79 80 82 83 90 91 93 82 92 94 89 100 100 102 105 103 104 114 113 103 118
23 20 20 16 15 12 29 19 14 15 19 18 7 14 6 6 4 10 10 15 19 26 31 65 72 72 73 86 88 85 94 97 98 100 102 102 104 107 110 104 113 114 113 121
17 25 18 18 17 13 12 10 15 17 15 13 14 7 5 5 8 6 9 13 19 23 24 28 33 39 44 49 53 61 62 64 67 75 90 100 105 100 100 103 106 106 106 108
34 19 24 15 18 28 27 17 14 16 15 36 25 16 17 16 18 19 21 23 26 28 30 33 39 44 49 53 58 61 66 68 71 75 79 82 85 91 103 101 104 108 112 119
35 29 31 21 19 28 35 26 31 17 18 17 15 17 18 35 28 26 25 28 31 34 37 43 49 48 49 62 65 58 64 71 70 75 77 87 89 92 97 103 122 128 127 120
40 38 43 36 27 25 30 31 29 29 37 25 38 29 29 28 27 42 52 56 54 59 47 51 75 78 64 65 70 73 67 84 89 92 84 90 98 98 113 115 113 121 124 127
45 42 42 44 42 41 34 34 34 37 35 34 36 36 41 38 43 51 40 44 55 44 46 52 51 55 68 75 65 78 83 87 87 89 92 101 115 120 122 115 125 128 132 135
53 49 45 49 48 48 45 43 42 43 44 46 36 36 44 43 46 50 46 48 50 47 59 61 48 61 75 71 82 84 76 75 86 93 107 110 108 111 117 128 120 117 139 141
63 59 57 56 54 53 51 50 54 54 49 47 51 48 51 46 51 43 58 51 47 42 45 61 53 71 75 88 75 74 82 91 105 110 110 107 116 122 131 120 140 138 148 147
63 67 42 61 58 57 54 56 55 57 56 54 55 52 63 46 47 58 44 64 66 71 58 63 67 69 88 89 79 103 102 107 118 105 107 118 131 135 140 138 147 147 149 146
59 64 74 63 50 58 55 62 67 63 63 55 68 47 64 53 66 59 59 73 64 59 77 67 83 92 92 79 91 110 113 114 114 123 129 137 141 139 136 140 143 146 147 154
81 81 81 36 56 62 74 75 64 49 56 50 48 52 48 80 48 84 74 83 57 80 95 97 96 99 91 88 102 112 122 111 106 134 138 134 136 138 133 136 141 151 85 88
85 83 86 81 74 44 71 72 75 79 59 54 74 51 79 54 75 77 86 57 64 95 98 99 103 92 89 122 117 124 109 134 136 136 133 135 128 141 142 144 92 80 83 83
74 81 88 86 89 87 69 83 75 84 87 68 80 65 62 80 91 92 96 78 103 101 104 116 96 93 111 124 133 116 136 137 137 136 125 139 141 144 109 83 80 74 63 67
54 55 79 95 81 90 71 93 86 89 74 74 82 93 69 91 94 82 69 106 101 90 115 96 93 115 128 133 133 132 124 132 135 133 136 140 100 85 82 79 74 70 68 68
95 89 67 98 94 95 64 93 89 77 71 86 90 74 99 63 101 107 105 97 118 113 123 104 125 131 136 132 124 125 124 126 132 135 89 87 84 81 78 75 72 69 68 67
100 91 93 80 91 95 95 93 80 88 81 94 92 71 92 109 106 99 99 118 119 115 118 126 125 126 119 101 121 123 126 129 81 78 76 74 71 67 64 63 62 60 58 55
97 94 94 85 75 103 102 94 77 82 94 104 109 107 98 94 105 108 113 117 120 120 120 122 120 120 114 120 122 125 61 63 69 69 68 58 56 62 60 58 55 53 52 52
98 99 96 92 91 101 103 102 100 88 99 103 106 106 104 107 113 116 116 117 116 102 114 119 120 118 117 120 67 64 64 63 62 47 44 43 43 53 51 50 49 49 49 48
99 101 102 104 103 96 92 102 104 106 106 110 112 111 106 106 114 114 111 115 119 116 117 117 115 114 113 54 54 54 51 41 42 43 42 42 40 40 40 41 41 40 40 38
100 100 106 105 103 102 104 103 104 107 98 94 109 107 113 113 113 114 116 114 114 113 112 111 98 41 40 41 41 42 37 36 34 34 34 33 31 30 30 30 29 28 28 27
106 108 107 106 99 103 106 106 107 107 106 109 111 98 111 106 110 111 111 109 107 107 106 60 43 42 41 37 36 35 35 34 32 31 30 29 27 26 24 22 21 20 20 20
107 106 105 104 104 99 100 96 101 109 109 109 110 110 104 109 110 106 104 102 102 102 41 45 48 47 44 42 41 39 38 36 35 33 32 31 30 28 27 26 25 24 23 22
105 106 105 105 106 107 108 108 108 107 104 108 108 106 107 104 103 99 99 98 69 34 37 48 47 46 44 43 42 40 38 37 35 34 33 31 31 29 29 28 27 26 26 26
105 105 107 107 106 107 107 107 106 105 104 107 106 103 100 96 95 94 97 35 33 37 43 45 45 44 43 42 41 40 39 38 35 34 30 29 28 28 27 27 27 27 26 26
98 99 101 101 100 101 101 101 102 104 104 103 98 92 92 92 92 47 31 33 33 37 43 42 42 42 42 42 41 36 35 34 32 31 31 30 30 29 28 28 28 28 28 28
Wind_Direction
6 325 13 260 24 31 25 43 48 55 72 233 141 157 166 187 230 235 237 239 240 244 245 247 249 253 257 259 262 263 265 270 273 277 279 276 277 278 282 286 284 287 288 288
344 0 341 354 250 15 8 33 37 44 44 61 68 230 93 116 202 216 226 243 240 244 247 250 253 257 260 257 260 264 271 271 268 278 277 275 276 278 282 284 285 285 290 287
333 335 350 321 344 322 260 15 10 19 28 38 48 44 86 84 131 194 186 202 221 230 237 250 251 261 263 261 265 271 270 271 274 275 277 278 279 281 282 285 285 287 287 288
305 299 290 332 341 334 308 325 269 273 6 3 0 353 303 288 251 264 252 239 238 243 253 256 258 260 264 267 271 273 277 279 278 279 278 279 281 284 285 285 285 284 284 286
300 263 280 305 278 276 272 311 323 333 275 257 258 276 322 313 274 270 269 264 262 264 268 269 268 269 271 272 274 276 277 280 280 281 281 284 284 282 280 280 281 279 281 280
288 256 264 250 282 262 270 304 268 287 297 282 286 296 287 259 262 266 279 281 282 278 280 276 273 279 281 275 276 283 279 277 279 282 282 280 278 283 288 282 280 282 280 288
281 283 261 276 264 269 284 267 264 293 264 289 264 275 281 287 283 263 259 259 260 259 263 267 265 270 275 274 277 278 283 277 278 280 284 285 283 290 280 282 280 289 286 283
276 275 274 267 281 264 268 283 262 258 285 271 287 288 280 288 277 264 278 288 263 289 287 284 287 277 276 275 283 277 278 277 290 281 282 283 276 275 278 288 283 286 290 291
274 273 269 277 277 281 283 280 264 285 290 288 280 279 292 273 292 272 286 291 290 283 294 275 284 287 270 285 278 293 295 291 292 288 299 297 296 293 288 293 288 296 292 292
275 276 276 276 277 281 283 288 290 289 284 283 291 290 296 286 297 285 295 296 294 285 275 301 275 271 301 295 296 290 278 294 298 298 298 291 292 283 297 293 294 291 297 297
277 277 275 277 279 283 282 286 287 289 288 289 290 293 271 290 290 296 279 300 298 297 283 271 272 280 283 298 290 301 301 300 298 296 287 294 298 296 296 295 297 297 297 299
277 279 276 281 285 283 287 287 286 286 286 287 288 286 295 297 299 295 301 304 302 275 296 277 301 303 303 282 297 302 303 300 297 299 298 297 297 298 296 298 299 300 300 298
269 272 276 263 283 281 283 279 285 281 286 286 286 286 291 289 273 292 303 303 287 295 297 302 303 302 300 281 305 303 299 296 286 298 298 298 298 297 298 299 300 298 299 298
267 271 272 276 279 271 284 284 284 281 282 283 290 277 294 296 302 301 301 291 284 297 300 300 298 296 285 299 301 301 296 300 299 298 298 299 298 298 300 299 299 297 296 296
271 271 271 273 273 273 282 279 284 286 283 282 291 291 290 300 297 298 296 291 296 296 301 296 298 293 299 301 300 297 301 298 297 297 299 298 299 299 299 299 299 298 296 297
269 275 274 268 272 273 280 275 282 282 290 293 292 289 297 298 297 295 290 295 299 298 299 298 293 299 301 299 297 298 297 298 297 297 298 299 300 299 299 299 299 298 297 296
261 266 277 263 269 269 279 275 279 287 292 290 291 294 290 288 294 292 295 299 295 298 295 297 298 297 297 298 299 299 299 298 297 299 301 300 300 299 298 297 297 296 296 294
256 266 261 276 273 271 272 275 284 285 290 288 290 294 295 288 292 298 297 293 293 296 297 296 297 298 302 298 298 300 298 300 300 299 298 298 298 296 295 293 293 293 293 294
257 261 262 272 270 269 269 275 284 287 286 283 281 284 291 294 293 292 293 293 293 295 296 298 298 300 300 302 300 300 303 303 303 302 301 300 299 297 297 297 296 295 296 297
260 261 263 267 271 268 270 271 273 286 286 284 284 284 288 289 291 293 293 295 296 291 296 301 302 303 302 301 306 307 307 307 306 310 308 306 304 299 299 298 297 297 297 296
262 263 265 266 268 271 275 274 276 278 282 283 284 286 290 291 293 294 295 297 299 299 301 303 304 302 310 312 313 312 313 319 316 314 312 310 307 304 302 300 299 298 299 299
261 263 264 266 269 272 273 277 279 280 283 288 287 290 290 292 294 297 298 300 301 302 304 305 305 322 324 324 322 321 326 327 329 329 329 329 326 322 317 313 310 309 307 306
258 261 265 267 272 273 273 276 278 281 285 286 289 288 293 296 296 298 301 300 304 305 304 314 317 320 323 328 330 331 333 335 337 338 340 340 341 340 341 339 338 335 332 330
257 261 265 268 271 275 277 282 283 283 286 288 292 292 292 295 298 299 302 304 304 305 313 312 312 315 317 319 322 324 326 328 330 332 334 337 339 342 344 345 345 346 348 350
258 262 265 268 271 274 275 279 282 284 288 289 290 292 296 297 300 303 303 302 308 314 313 309 310 312 315 316 317 319 320 322 323 325 326 327 329 332 333 339 339 339 339 338
259 263 265 268 271 273 276 280 282 285 287 290 292 294 296 300 301 300 303 307 309 307 306 307 309 311 313 314 315 316 318 319 323 325 332 333 335 335 335 333 333 332 333 334
262 264 267 270 274 276 278 281 284 286 289 291 293 298 298 299 300 305 304 303 303 304 303 305 307 310 311 312 312 318 318 321 321 322 324 326 326 325 325 326 327 328 327 328